Theta_e
341 342 344 345 347 347 347 347 347 347 347 347 347 347 347 349 347 346 344 345 344 346 347 348 347 346 345 344 343 342 341 340 340 340 341 342 341 340 338 338 338 338 339 340 340 341 342 342 343 342 342 342 340 340 339 338 338 338 336 336 338 338 340 340 341 341 340 340 341 342 339 340 340 338 335 335 334 333 335 333 334 329 330 332 334
340 343 345 346 347 347 347 347 347 346 346 345 346 346 346 349 348 346 345 346 346 347 347 347 347 347 345 343 342 342 341 341 341 341 341 341 340 340 341 341 341 341 340 340 340 340 340 341 341 342 341 341 340 339 338 338 337 336 336 337 337 338 339 339 339 339 339 339 340 341 340 341 338 338 337 335 334 333 336 336 334 332 331 333 333
343 343 345 346 347 347 347 347 347 347 346 344 344 344 344 345 348 347 346 347 346 348 347 347 347 348 346 344 343 341 340 340 340 340 339 337 338 337 338 338 338 337 338 338 338 338 339 339 339 340 341 341 340 339 338 337 336 335 334 336 336 338 339 339 339 339 339 339 339 339 337 340 340 337 337 336 334 333 335 334 334 334 332 334 335
342 344 345 346 347 347 347 347 347 346 345 344 343 342 342 342 345 348 347 346 346 346 347 347 347 346 346 344 343 342 342 341 338 337 337 337 337 337 337 337 337 338 337 338 338 338 338 338 339 340 339 338 340 339 337 337 336 335 334 335 337 338 339 339 339 339 339 338 337 336 337 338 339 338 336 337 335 333 336 333 334 336 337 336 339
342 344 345 347 348 347 348 347 346 345 344 343 342 342 342 342 342 346 347 347 346 346 344 346 347 347 346 343 341 339 338 337 337 338 339 338 339 340 339 340 339 338 338 338 338 338 338 338 338 339 339 338 339 338 337 336 336 335 335 336 337 337 338 338 339 338 338 337 337 337 337 338 339 340 337 337 336 337 337 336 335 335 335 336 337
343 344 345 346 347 349 347 347 346 345 343 343 342 341 341 341 342 342 343 344 343 343 343 343 347 347 345 342 340 339 338 338 338 338 336 338 338 338 336 335 336 337 338 338 338 338 338 338 338 338 338 339 338 337 337 337 336 336 336 334 334 334 337 338 338 337 336 335 335 337 338 338 338 338 337 337 337 337 335 334 334 334 337 338 338
343 344 345 345 347 347 345 347 345 344 343 343 341 339 340 339 340 340 340 342 342 342 342 343 343 343 345 344 341 340 340 340 339 338 341 341 341 341 341 340 339 339 338 338 338 337 337 338 337 338 339 339 338 338 338 337 336 334 333 332 332 333 334 335 335 334 333 331 332 334 336 337 338 338 339 339 336 337 336 335 334 336 338 338 338
344 344 345 345 346 346 345 347 345 343 343 342 340 340 340 339 340 340 340 341 342 342 342 343 344 342 342 340 340 341 341 341 341 342 340 338 337 337 338 337 336 338 338 338 339 338 339 338 337 339 338 339 337 336 336 336 336 333 331 331 332 332 333 333 332 331 330 328 331 332 336 337 337 337 338 339 339 338 338 338 337 336 338 339 337
343 344 344 345 346 343 344 346 344 343 343 342 340 340 341 340 340 341 342 342 341 341 343 342 342 339 338 338 339 341 343 343 344 342 340 338 336 336 338 337 337 337 337 337 337 337 337 338 337 338 338 338 337 336 335 335 334 333 332 332 333 333 332 331 330 329 327 328 329 331 335 336 337 337 338 339 338 338 338 337 337 338 338 337 336
343 344 344 345 346 342 344 345 345 343 343 342 341 341 341 341 341 341 341 341 341 340 341 342 341 340 340 340 343 344 344 344 343 340 339 338 337 337 336 336 336 336 336 336 337 338 337 337 336 337 337 337 336 336 336 335 333 332 333 334 333 333 332 330 327 327 326 328 330 332 333 334 336 337 338 338 338 338 337 337 338 338 338 337 336
343 343 343 344 346 341 345 346 346 345 343 342 342 343 343 342 341 341 340 340 340 341 342 341 340 340 342 342 342 344 344 344 342 340 340 339 338 336 337 337 338 337 337 337 337 337 337 337 337 336 337 337 336 335 334 334 332 332 333 334 333 333 331 329 326 326 327 328 330 332 331 332 336 338 338 338 338 338 338 339 338 337 336 337 337
342 342 343 343 345 340 345 345 346 345 343 343 343 343 342 342 341 341 340 340 340 340 340 340 340 340 340 340 340 343 344 343 343 341 340 339 339 340 339 336 334 335 336 336 336 336 337 336 336 336 337 337 336 335 334 333 332 332 333 334 333 332 330 328 326 327 328 328 331 332 333 333 336 337 338 339 338 337 336 336 336 336 337 337 337
341 342 343 343 345 339 343 343 344 345 344 343 343 342 341 340 341 340 340 340 340 340 340 340 341 341 340 340 340 341 342 342 342 342 342 341 341 338 337 336 337 338 337 337 336 336 336 336 336 336 336 336 336 335 335 335 335 334 334 332 331 330 329 328 327 327 327 329 331 332 332 335 338 338 338 338 338 337 336 337 336 337 337 337 337
340 341 342 343 344 344 339 341 343 345 345 344 343 341 340 338 337 339 338 339 339 340 341 341 341 341 340 340 340 340 341 341 342 342 341 340 339 339 339 338 338 336 335 335 336 335 336 336 336 336 336 336 335 334 334 333 334 334 333 331 330 329 327 326 325 327 328 329 330 332 333 334 338 338 337 338 337 338 337 337 337 337 337 337 337
339 341 342 343 344 345 341 339 340 341 343 343 343 342 340 338 337 337 337 340 340 342 342 341 340 339 340 340 341 341 341 340 341 340 340 340 339 339 338 338 338 337 336 336 335 336 335 336 336 336 335 335 334 333 333 333 333 333 331 330 329 328 325 325 326 327 328 329 330 331 333 335 337 337 336 335 338 338 337 337 337 337 337 336 337
340 341 342 342 344 344 344 342 335 336 339 340 340 340 341 340 340 340 341 340 341 342 340 340 339 338 338 341 341 340 340 340 340 340 339 339 338 338 337 337 336 336 336 335 335 335 335 335 335 334 333 333 333 332 332 332 332 332 331 330 328 327 325 325 327 327 329 330 331 331 332 335 336 337 337 335 337 337 337 337 337 337 337 336 335
340 341 341 341 343 343 343 344 339 333 334 335 336 338 339 340 341 343 342 342 342 340 339 339 339 336 343 342 340 339 339 340 340 339 339 338 337 337 336 336 336 335 335 335 336 335 334 334 334 333 332 332 332 332 332 333 332 331 330 328 327 326 324 323 327 328 329 330 329 331 333 337 336 335 336 337 338 337 336 337 337 337 335 334 333
339 340 340 341 342 342 341 342 341 340 341 335 333 335 338 341 340 341 341 341 341 341 340 340 340 339 339 338 337 337 337 338 339 339 339 339 338 337 336 335 335 335 335 335 335 334 333 334 334 333 333 334 334 335 334 333 334 331 330 328 326 325 323 322 327 327 329 329 331 331 335 336 336 335 335 337 337 336 336 336 337 336 334 332 331
338 340 340 341 340 341 341 340 339 338 339 340 341 340 334 337 338 338 339 339 339 339 339 336 336 335 333 332 331 331 330 330 332 333 334 334 334 335 336 335 334 335 334 334 333 333 333 334 334 334 334 334 333 333 333 333 332 329 327 326 324 322 320 324 327 327 329 330 331 332 336 335 335 335 334 336 336 336 336 336 336 334 332 331 329
337 338 338 339 341 339 339 338 337 337 337 339 340 341 334 332 334 335 336 336 336 336 333 331 330 328 327 327 326 327 326 326 324 326 327 329 330 331 334 335 334 334 333 333 333 333 333 333 334 335 333 332 330 328 329 330 330 328 326 324 322 320 326 325 325 327 328 328 329 332 334 334 334 335 335 335 335 334 335 336 335 333 331 329 327
335 336 337 338 340 338 337 336 336 335 337 338 339 339 338 331 332 331 332 332 332 331 328 324 323 323 323 323 325 327 327 327 326 325 324 326 323 324 331 334 335 334 332 332 333 333 333 332 333 334 332 328 323 321 323 327 327 327 325 321 319 325 323 324 325 326 325 325 327 332 332 336 333 334 335 334 333 333 333 334 333 332 330 329 327
332 334 335 336 338 338 337 336 334 334 336 336 337 337 337 335 338 338 337 333 327 325 327 328 326 326 321 325 326 326 327 327 327 327 327 326 325 322 325 330 330 329 330 332 333 333 333 334 334 333 329 325 318 322 320 318 322 322 320 317 324 324 323 323 325 325 322 324 325 328 332 333 331 330 330 331 332 332 332 332 331 330 329 327 327
330 332 334 335 338 338 337 335 335 334 334 335 336 336 336 336 336 335 335 328 330 329 330 327 326 325 326 326 325 326 326 326 326 326 325 320 323 320 324 326 326 325 325 326 327 328 330 331 329 328 325 319 321 322 322 321 324 317 316 322 324 324 323 323 325 324 322 322 325 325 331 330 328 328 329 332 332 330 330 330 329 328 326 326 326
330 331 332 334 337 337 336 336 334 333 334 334 335 335 335 335 334 334 333 331 330 329 328 327 325 325 325 325 325 325 325 325 325 325 324 324 322 319 320 321 321 320 318 319 318 320 321 321 320 319 318 319 323 323 324 322 325 324 322 322 324 322 323 323 323 322 321 321 324 323 330 330 326 327 332 331 330 330 330 329 328 326 326 326 325
331 332 332 332 335 337 336 335 334 333 334 334 334 334 335 334 333 332 331 331 329 328 327 326 325 324 324 324 324 323 324 324 325 325 324 323 323 322 321 321 321 321 315 319 315 314 315 318 319 320 322 324 326 326 326 327 325 325 323 322 322 322 322 322 322 320 321 321 324 322 327 331 326 326 328 330 329 328 327 326 326 326 325 325 325
331 330 331 332 335 337 336 335 334 333 333 333 333 334 334 333 332 330 330 329 328 328 326 325 324 323 323 323 322 322 322 323 323 323 322 322 321 321 321 321 318 319 315 317 314 315 315 315 320 323 323 322 324 326 325 324 325 324 323 322 322 322 321 320 320 320 320 321 323 319 324 330 329 326 328 326 326 326 326 324 324 325 324 324 324
328 329 331 332 334 336 336 335 334 332 332 333 334 333 333 333 333 331 330 329 328 327 325 323 323 323 322 321 321 321 320 321 321 321 320 320 320 320 319 318 319 318 316 317 316 314 315 316 320 322 321 324 324 324 324 325 325 324 323 323 322 321 321 320 319 319 320 320 319 315 321 327 330 328 325 326 328 327 328 326 325 325 325 324 324
327 328 330 331 333 335 335 335 334 332 331 332 333 332 333 333 332 330 330 328 327 327 326 324 322 321 321 320 320 320 319 319 319 319 319 318 319 319 318 317 317 316 315 315 316 315 317 317 319 322 324 324 325 325 325 324 324 324 324 323 322 321 321 319 319 319 319 320 321 318 319 324 327 329 331 327 329 328 328 327 326 325 323 324 324
325 327 329 330 332 334 335 334 334 333 332 332 331 332 332 332 331 330 330 327 328 327 326 325 323 322 321 320 319 319 318 318 317 317 317 316 317 317 317 317 316 315 314 316 316 318 319 319 322 324 323 324 324 325 324 324 323 324 324 322 322 320 319 318 318 319 319 319 320 319 316 320 325 327 329 328 326 327 327 327 326 324 323 323 323
325 327 328 329 331 334 334 333 333 333 332 331 331 331 331 330 330 330 330 328 328 328 327 325 324 322 322 320 319 320 318 318 317 316 314 314 315 316 315 315 315 315 315 318 317 317 319 320 321 322 322 323 323 323 322 324 323 324 321 321 322 320 318 318 318 318 318 319 319 320 314 317 321 324 327 332 326 327 325 324 324 324 323 322 323
325 326 327 329 330 332 334 334 333 332 333 330 330 330 330 330 329 329 329 328 329 328 327 326 324 322 322 321 320 319 319 318 318 317 315 315 313 313 314 314 314 314 314 317 316 317 319 321 321 322 322 322 323 321 321 323 323 323 321 320 322 320 318 317 318 317 317 319 318 318 319 314 316 321 325 328 326 326 323 323 324 322 322 322 322
323 324 326 329 330 330 332 334 334 332 331 330 329 329 329 329 329 328 328 328 328 327 327 326 324 324 323 322 321 321 320 320 319 318 317 316 316 316 316 315 317 317 316 319 319 319 320 320 318 319 320 321 321 320 320 322 322 323 322 320 321 321 318 317 317 317 317 317 317 317 317 318 313 314 319 324 327 325 323 324 323 322 321 321 322
323 324 325 327 328 329 330 333 334 333 331 329 329 329 328 328 327 328 327 327 326 326 326 326 325 324 323 322 322 322 321 321 319 319 318 320 320 318 318 318 319 320 320 320 320 319 319 319 319 319 319 319 320 322 321 320 321 322 321 321 321 320 318 318 317 316 315 315 315 315 316 316 316 312 314 318 327 325 324 323 322 321 321 321 321
322 323 323 324 327 329 330 332 333 332 330 331 330 328 328 328 327 327 326 326 325 325 324 325 325 324 323 322 322 322 321 322 321 320 320 320 320 319 319 319 320 321 321 319 320 320 321 320 322 320 319 321 322 322 322 322 321 318 320 321 321 320 318 317 316 315 313 313 312 314 314 314 314 315 316 314 319 323 323 322 321 320 320 321 321
322 322 322 324 325 328 329 330 331 332 330 330 330 329 328 327 326 326 325 325 324 324 324 324 324 324 323 323 322 322 321 322 322 322 320 320 320 319 319 320 320 320 320 320 321 320 320 321 321 321 321 320 321 320 321 322 321 321 321 320 322 321 318 317 316 314 311 310 309 312 313 313 313 313 314 317 313 317 322 322 320 319 319 320 320
321 322 322 323 323 325 328 329 330 331 331 330 331 330 329 328 327 324 325 325 324 323 323 323 323 323 323 323 322 322 321 322 321 321 321 320 320 320 320 320 320 320 320 320 319 320 320 320 320 321 322 321 320 321 319 320 319 320 319 320 321 319 318 318 317 314 310 308 308 310 311 311 312 312 310 314 315 313 314 316 316 317 318 318 319
321 322 321 322 322 323 324 328 329 330 330 331 331 331 330 328 327 326 326 325 324 323 323 323 323 323 323 323 323 322 322 322 322 321 321 321 320 320 321 320 320 320 320 320 319 320 320 319 320 319 322 323 321 321 319 318 320 318 318 320 320 318 318 318 316 314 310 308 308 308 309 308 309 306 311 311 312 312 310 311 312 313 313 314 316
322 321 322 322 321 322 323 325 328 330 330 331 330 330 330 329 328 327 324 325 324 324 324 323 323 323 323 323 324 323 322 323 322 321 321 322 321 320 321 320 320 320 320 320 319 320 320 321 320 319 319 320 320 320 320 318 314 315 318 318 318 316 314 315 315 311 310 308 306 307 308 307 309 309 308 309 309 307 307 307 307 308 309 313 313
322 321 321 322 322 322 322 322 324 327 329 330 330 330 330 329 328 326 325 324 325 325 325 323 323 323 323 323 323 323 321 323 322 321 320 321 320 320 320 320 320 320 320 319 319 319 319 319 320 319 315 318 321 320 321 317 313 316 317 316 316 314 310 309 310 310 309 307 305 306 305 306 306 306 307 307 305 305 303 303 304 306 308 309 311
322 321 320 321 321 322 321 322 322 325 327 329 330 328 328 326 324 323 322 322 323 322 324 324 324 323 323 322 322 322 322 321 321 321 320 320 319 319 320 320 320 320 319 318 318 318 318 317 317 319 317 313 312 315 317 316 315 316 315 315 314 312 309 308 308 308 307 306 306 305 305 304 306 305 304 304 304 303 302 301 300 301 303 305 306
322 321 320 320 321 321 320 320 321 323 324 325 326 326 325 325 324 322 321 322 321 323 323 323 323 324 323 322 321 320 321 320 320 321 320 318 320 321 320 320 320 319 319 319 320 319 319 319 319 318 319 317 316 314 313 316 318 316 315 315 314 311 309 306 305 304 304 303 304 305 304 302 303 304 303 303 303 302 299 298 297 297 298 300 302
321 321 320 320 321 321 320 321 321 321 322 324 325 326 327 326 324 323 323 323 323 321 321 324 323 324 324 323 322 321 321 320 320 321 321 321 321 320 320 320 319 319 319 320 320 316 318 318 318 316 314 318 319 316 314 317 314 316 315 314 315 313 308 306 304 303 303 302 302 304 303 302 302 303 300 302 301 299 298 296 296 297 297 298 299
322 321 322 321 321 320 321 321 322 321 322 323 324 324 326 327 326 325 324 324 326 325 325 324 324 324 324 323 323 322 321 321 321 320 321 321 321 321 320 321 320 319 318 318 318 318 318 318 317 318 314 313 316 314 314 317 319 312 313 313 310 310 310 307 306 304 303 302 301 302 302 302 301 301 300 301 300 298 297 296 296 296 296 297 298
320 321 321 321 321 320 321 321 321 321 322 322 321 325 325 326 327 326 326 325 324 324 324 324 324 323 322 323 323 323 322 321 321 321 320 321 321 321 321 321 320 320 319 319 317 317 317 317 317 318 319 315 313 314 313 315 317 314 311 311 309 308 307 310 310 308 302 301 301 301 300 301 301 300 299 300 299 298 296 295 295 295 296 296 297
319 321 321 321 321 321 322 321 321 321 322 321 321 323 323 323 324 322 321 322 321 321 321 320 321 321 322 322 321 322 322 322 322 322 320 321 321 321 321 321 321 320 320 319 319 319 319 319 318 317 318 318 316 315 313 314 316 320 318 308 306 305 306 309 307 310 300 300 299 300 300 300 300 300 300 299 299 298 296 295 294 294 295 295 296
317 320 322 322 322 322 322 322 322 322 322 322 321 322 321 321 320 320 318 318 318 318 317 318 319 319 319 322 322 322 322 322 322 322 321 320 321 321 321 321 321 320 319 319 320 320 319 318 318 319 318 320 320 316 315 313 316 317 318 320 316 312 309 307 307 307 300 299 298 297 298 300 300 299 299 298 298 298 296 295 294 294 294 295 295
316 319 321 322 323 323 323 322 322 322 322 322 322 320 321 321 320 320 320 320 319 320 322 322 322 322 322 321 322 322 321 321 322 322 322 321 320 321 321 321 321 321 320 320 319 319 320 320 320 319 319 319 319 318 316 316 312 313 315 314 312 310 315 309 307 304 304 302 299 296 296 297 298 299 298 298 298 298 296 294 293 293 294 294 294
313 317 319 321 322 322 323 322 322 321 322 322 322 321 320 320 320 320 320 320 320 321 321 322 323 322 321 321 322 321 321 321 321 322 322 322 320 321 321 321 321 321 320 319 320 321 321 320 319 320 320 320 319 318 319 318 314 314 314 313 313 309 309 312 313 310 310 308 305 297 296 294 294 296 298 297 297 297 297 294 293 293 293 293 294
310 313 316 319 321 322 323 323 322 322 322 322 321 321 321 321 321 320 319 320 321 322 322 321 321 321 321 321 321 321 321 321 321 321 322 322 320 321 321 321 321 321 319 320 321 321 321 320 318 318 318 318 319 320 320 319 317 318 313 312 313 311 308 305 304 305 308 306 306 302 299 292 293 294 295 297 296 297 297 295 293 293 292 293 293
307 311 314 317 319 321 322 322 322 322 322 322 321 321 321 320 321 320 320 320 320 321 321 320 320 320 320 320 321 321 321 320 320 321 321 322 322 321 321 321 321 321 318 321 321 320 320 320 320 319 319 319 319 319 319 320 319 320 318 316 311 310 308 305 304 304 302 303 305 299 298 295 293 296 295 294 295 295 297 295 293 292 292 292 292
306 308 311 314 317 319 320 321 322 323 322 321 321 321 321 321 321 321 320 320 320 320 319 320 319 319 319 320 320 320 321 321 321 320 321 321 321 321 321 321 321 320 319 320 320 321 321 321 321 320 319 319 318 318 317 319 320 319 318 318 315 314 310 308 307 305 306 302 299 302 303 299 302 304 295 296 295 295 295 294 292 292 292 291 291
Wind_Speed
7 7 4 5 5 7 9 10 10 10 9 9 11 12 12 14 15 13 7 12 7 12 12 14 15 15 15 15 15 14 14 13 12 12 13 13 14 14 12 11 12 12 12 12 13 13 14 13 14 13 14 15 17 17 17 17 16 16 17 18 17 18 18 18 18 18 17 17 17 17 15 16 16 17 16 16 15 14 8 7 6 10 10 10 12
10 6 5 6 6 8 10 11 11 10 10 8 9 12 11 14 13 13 8 10 11 13 13 13 14 15 15 15 15 13 13 13 13 13 13 13 13 13 13 13 13 13 12 13 13 13 13 13 13 13 14 15 17 16 17 17 17 17 17 18 18 18 17 17 17 17 17 17 16 15 15 14 16 15 16 17 14 13 8 7 4 6 8 10 8
8 6 5 5 7 7 9 10 11 11 10 8 8 10 11 11 12 11 10 10 7 12 12 13 14 15 15 16 14 13 12 12 13 13 13 12 12 12 12 13 12 12 13 12 13 13 13 13 13 13 15 15 15 17 17 17 17 16 17 17 17 17 16 16 16 15 15 15 15 13 12 13 12 15 15 14 14 15 10 9 11 10 8 11 13
9 6 5 5 5 6 10 10 11 11 10 9 9 10 10 10 11 11 11 11 10 11 12 12 12 14 16 15 14 13 13 14 13 12 12 13 12 12 12 12 13 13 13 13 13 13 13 13 14 14 15 15 15 16 17 17 17 17 16 16 17 16 16 15 14 14 14 13 13 10 7 7 8 11 14 14 12 12 8 12 12 14 12 11 15
8 7 6 7 6 5 7 8 11 11 10 10 9 9 10 10 10 11 11 12 12 12 11 12 13 15 16 15 14 13 12 11 11 13 13 13 13 13 13 13 13 13 14 14 14 13 14 14 14 15 14 15 15 15 16 17 17 16 17 16 16 15 15 14 13 14 13 13 11 8 7 8 7 9 13 13 11 7 8 10 10 11 11 11 12
8 7 6 5 4 6 6 9 11 11 11 10 9 8 8 10 10 8 8 11 11 11 11 12 14 14 14 15 14 14 12 12 12 12 12 13 13 12 12 11 13 13 13 14 14 14 13 14 15 14 14 14 15 15 15 15 16 16 15 15 15 14 14 13 13 13 13 12 9 6 7 8 7 6 11 12 12 9 11 11 11 11 13 14 13
10 7 7 5 3 6 7 9 10 10 10 11 9 8 8 9 8 8 8 11 10 10 11 11 11 12 13 13 13 13 12 12 13 13 14 13 13 14 13 13 12 12 12 13 13 13 14 14 14 14 14 15 15 15 15 15 16 15 14 14 14 14 13 13 13 13 12 8 5 5 5 7 7 5 10 12 12 11 11 10 10 11 12 12 13
7 6 7 6 3 6 7 9 9 9 9 10 9 9 9 9 8 7 8 10 10 10 11 11 11 11 10 11 11 11 12 13 13 13 12 12 11 12 12 12 12 13 13 13 13 13 13 14 14 14 14 15 14 14 14 14 15 14 14 14 14 13 13 13 12 10 8 4 4 4 5 8 7 5 8 12 11 11 11 9 10 11 12 13 10
9 7 7 6 5 6 6 9 10 10 10 10 9 8 9 9 7 7 8 11 10 11 12 11 11 10 9 8 9 10 12 12 12 12 12 11 11 11 12 12 12 12 12 12 12 12 12 13 13 13 14 14 14 14 14 14 14 13 13 13 13 12 12 12 10 9 6 4 4 4 6 7 7 6 7 11 11 10 10 7 7 10 11 11 11
9 8 8 6 5 7 6 8 10 11 11 10 9 9 9 9 8 8 9 11 10 11 11 11 10 10 10 9 8 9 10 13 12 12 12 11 11 12 12 12 11 11 11 11 12 12 13 13 13 13 14 14 14 13 13 13 12 12 12 12 12 11 11 10 8 6 4 4 5 5 5 7 5 5 6 9 10 9 6 3 4 7 8 10 12
9 8 7 7 5 6 7 8 8 9 11 10 11 10 9 9 9 9 9 9 10 11 11 11 11 11 11 9 10 11 12 11 12 12 13 12 12 11 12 12 12 11 11 11 12 12 12 12 13 13 13 14 13 13 12 12 11 11 12 12 11 10 10 8 6 4 4 4 4 4 5 6 3 4 6 7 10 10 5 5 7 9 10 12 12
8 7 6 5 8 7 7 7 7 8 10 11 11 11 10 10 9 10 9 10 11 11 10 10 10 10 9 9 8 10 10 11 11 11 12 12 12 13 12 11 10 11 11 11 11 11 12 12 12 12 13 13 14 13 12 11 11 11 11 11 10 10 9 8 4 3 4 4 4 5 6 6 6 3 7 11 12 11 9 9 9 10 11 12 13
8 8 7 5 7 6 7 7 7 8 9 10 11 11 11 10 11 10 10 10 10 9 9 10 10 10 9 9 9 8 10 10 10 10 11 12 13 12 11 11 12 12 12 12 11 11 11 12 12 12 13 14 14 13 12 11 10 9 9 9 9 9 8 7 3 4 4 4 4 5 6 5 6 8 9 11 11 10 10 10 11 11 11 13 15
9 9 7 6 5 6 7 7 7 6 8 8 10 10 10 9 7 11 10 11 10 10 10 10 11 10 9 9 8 8 9 10 11 10 11 11 11 11 11 12 11 12 11 10 10 11 11 11 12 12 13 13 12 12 12 11 9 8 9 9 8 8 6 4 4 3 4 4 4 5 5 5 6 7 8 10 10 10 10 11 11 12 13 15 16
10 10 9 8 7 6 6 7 6 6 7 8 8 9 9 9 8 7 9 8 11 10 10 11 10 10 9 9 9 8 8 9 9 10 10 10 11 11 11 11 11 11 10 10 10 11 11 11 11 12 12 12 12 11 11 10 9 8 8 8 7 7 5 3 3 3 3 3 3 5 4 4 7 6 9 9 10 9 11 12 12 14 15 16 18
9 10 9 7 7 5 5 5 6 7 7 7 8 7 7 7 7 8 8 9 11 10 10 9 9 9 9 9 9 8 8 9 9 9 9 9 10 10 10 10 10 9 9 9 9 10 10 11 12 11 11 11 11 10 10 10 9 8 7 7 7 5 5 2 2 3 2 3 3 4 4 3 5 6 9 10 9 10 11 13 13 14 16 18 18
8 8 8 8 7 5 5 4 5 6 7 8 7 7 7 6 5 7 8 9 11 10 9 9 9 8 8 9 9 9 7 8 9 8 8 9 9 9 9 9 9 8 8 8 9 9 10 11 11 10 10 9 9 9 8 8 8 7 7 7 6 5 4 3 2 3 3 3 3 3 3 3 3 5 10 10 9 11 11 13 13 15 17 17 17
8 8 9 8 7 5 4 3 4 4 4 7 7 7 7 6 6 8 8 8 9 9 8 6 10 11 9 10 9 10 11 10 7 7 7 7 7 7 9 8 8 8 7 7 8 9 9 10 9 9 9 8 8 9 8 8 7 7 6 7 6 4 4 3 3 2 3 3 3 3 4 5 3 8 9 10 10 12 12 12 13 16 18 17 16
8 9 10 8 8 4 5 3 3 4 4 4 4 5 8 8 8 8 8 8 8 8 10 10 11 11 10 10 10 10 10 9 9 9 8 8 9 8 9 9 8 7 6 6 7 8 8 8 8 8 8 8 9 9 8 7 6 7 7 7 5 5 4 2 3 2 3 3 3 3 5 7 5 9 10 9 12 13 11 12 14 16 17 17 15
8 9 9 8 7 5 5 4 3 3 4 3 4 4 7 9 9 9 8 7 8 9 9 9 10 10 10 10 8 7 6 7 8 7 8 9 7 6 8 8 8 6 6 5 6 6 7 7 7 8 8 8 8 8 8 7 7 7 6 6 5 4 2 2 2 2 2 3 3 3 6 4 6 10 9 10 11 13 13 13 15 16 16 16 15
7 9 8 7 8 5 7 5 4 4 4 4 3 4 5 8 7 8 8 8 9 10 11 10 9 9 9 8 7 5 4 4 4 4 6 6 6 7 7 7 8 7 5 4 5 6 6 6 6 8 8 8 7 7 7 7 6 6 6 6 4 2 2 1 1 2 2 2 3 3 9 4 5 8 9 9 11 12 12 12 15 15 15 14 14
9 8 7 8 6 6 8 6 5 4 4 4 4 3 4 5 5 5 5 7 9 10 8 7 8 7 7 6 5 4 4 4 4 5 4 4 5 6 7 7 7 6 6 6 6 7 6 6 7 7 7 6 6 3 3 4 6 5 5 5 3 2 1 1 1 1 2 2 2 5 10 5 6 6 6 7 9 11 11 12 14 14 14 14 14
8 7 8 10 7 7 7 8 8 5 6 6 5 5 6 4 4 4 5 7 7 7 7 7 6 6 6 6 5 5 4 4 4 4 4 5 5 5 6 6 5 5 4 4 5 5 6 6 6 6 6 6 3 1 1 1 1 4 3 2 2 1 1 1 1 1 2 2 2 6 9 4 5 4 8 9 9 10 11 12 14 14 13 13 13
9 9 9 9 9 6 9 9 8 8 7 6 6 6 6 5 3 3 5 5 6 6 7 6 6 6 6 5 5 5 5 4 5 7 6 4 3 4 5 5 4 4 3 2 3 4 5 5 5 5 2 2 2 1 1 1 1 1 2 1 1 1 1 1 1 1 1 2 2 8 8 4 3 5 11 8 9 10 11 13 13 13 12 12 13
8 7 7 9 10 8 9 8 9 7 8 6 7 7 7 6 5 5 6 6 6 6 5 5 5 6 6 5 5 4 4 4 4 4 3 3 3 2 2 1 1 1 1 1 1 1 2 2 2 2 1 1 1 1 1 0 1 1 2 1 2 2 1 0 2 1 2 2 3 8 7 6 4 4 8 8 9 10 10 12 11 12 12 12 12
6 7 9 9 9 9 10 7 9 8 7 8 8 7 8 7 6 6 6 6 7 7 6 5 6 6 6 6 5 4 4 4 4 4 4 3 4 3 3 2 2 2 1 1 1 1 1 1 1 1 1 1 1 1 0 1 0 1 2 2 1 2 2 1 0 2 1 2 3 7 8 7 5 4 6 7 8 8 11 11 11 11 11 12 12
8 10 10 9 9 10 11 9 10 8 8 8 8 7 9 8 8 7 7 6 6 7 7 6 6 6 6 6 6 5 5 5 5 5 5 4 4 4 3 3 3 2 1 1 1 0 0 0 0 0 1 0 1 1 1 1 1 1 1 2 2 2 2 1 0 2 1 1 2 7 8 7 9 7 3 6 8 9 10 11 11 11 11 11 11
9 12 11 10 9 12 10 10 10 10 7 8 9 9 10 9 9 7 7 7 7 7 7 6 6 6 6 6 6 6 6 5 5 5 5 4 4 4 3 3 3 2 2 1 1 1 1 0 0 1 1 1 2 1 1 1 0 1 2 2 3 2 2 1 0 2 1 1 2 5 8 8 9 8 10 6 7 9 10 10 10 10 9 9 10
12 12 10 10 11 10 11 12 11 13 8 8 10 9 10 10 9 9 9 7 7 7 8 6 5 5 5 5 5 5 4 4 5 5 4 5 4 4 4 3 3 2 2 2 2 1 1 1 1 1 0 1 1 2 1 1 0 1 2 3 3 3 2 1 1 1 1 1 2 3 7 9 8 11 12 4 7 9 9 9 10 9 8 8 9
14 11 11 11 10 11 10 11 11 11 10 9 9 9 10 11 11 10 9 7 9 7 7 7 6 5 5 5 6 4 5 4 4 4 5 5 5 4 4 4 3 3 3 2 2 1 2 1 1 1 1 2 2 1 1 1 0 1 2 2 3 3 3 2 1 1 1 1 1 2 6 8 9 11 10 10 7 8 7 7 8 8 7 8 8
11 14 13 11 9 9 10 10 12 11 9 10 9 10 9 10 9 9 8 9 8 8 7 6 6 6 6 6 6 6 5 4 4 4 4 4 4 4 4 3 3 4 3 2 2 2 1 2 2 2 2 1 2 1 1 2 1 1 2 1 2 3 3 3 2 2 1 1 1 2 3 6 9 8 9 10 4 7 7 8 8 7 7 7 7
13 14 13 11 11 13 13 12 10 11 10 9 8 9 10 10 9 8 10 9 8 9 8 7 7 6 7 6 6 6 6 6 6 5 5 4 4 4 4 4 3 3 4 3 3 2 2 2 2 2 2 1 1 1 1 1 1 1 2 2 2 3 3 2 1 1 2 2 1 1 1 3 6 8 10 10 2 6 7 8 7 6 6 6 7
9 10 10 11 15 14 13 13 12 12 13 9 8 8 8 9 9 10 9 8 8 8 8 8 7 7 7 7 7 7 7 7 6 7 6 5 4 3 3 4 3 3 3 3 3 2 2 2 2 2 1 1 2 2 1 1 1 1 2 2 2 2 2 2 2 1 1 2 1 1 1 1 3 5 8 10 4 9 8 7 8 7 6 6 6
7 6 8 13 11 9 9 9 11 13 12 10 9 8 8 8 8 7 8 8 8 8 8 7 8 8 7 8 8 9 7 7 7 6 6 5 5 4 4 4 3 4 3 4 3 3 3 3 3 2 3 2 3 2 1 2 1 1 2 2 2 2 3 4 3 2 0 0 1 1 1 1 2 2 3 7 9 11 12 11 9 8 6 6 6
7 8 12 11 12 12 10 10 10 14 11 12 12 9 8 8 8 8 8 9 9 9 8 8 9 8 7 8 9 8 9 8 7 7 6 6 6 4 5 5 4 3 3 3 3 3 3 4 3 4 2 2 2 1 2 2 2 2 2 3 3 3 3 3 2 1 1 1 1 2 1 1 2 2 2 3 7 8 8 11 9 8 6 6 6
12 10 10 9 10 10 12 13 12 14 12 11 11 11 11 9 8 9 9 10 9 9 8 8 9 8 9 9 9 9 9 9 9 8 7 7 6 5 6 4 5 4 4 4 4 4 4 4 4 4 3 3 2 3 1 2 2 2 1 2 3 3 3 3 4 3 2 1 1 2 2 1 1 2 3 3 4 8 13 11 10 8 7 6 5
10 10 11 10 10 11 11 15 16 17 17 14 12 12 10 10 10 9 10 10 10 10 9 9 10 9 9 10 10 10 9 10 10 9 8 8 7 6 5 5 5 5 4 4 4 4 4 4 3 3 4 3 3 3 2 2 2 1 1 1 1 3 3 4 4 3 4 4 4 3 2 2 2 4 3 3 3 4 9 10 11 9 7 5 5
10 11 10 11 12 10 10 12 13 15 14 14 11 11 10 10 9 8 9 10 10 9 9 9 10 10 10 10 9 11 10 11 10 9 9 6 6 6 5 6 5 5 5 4 5 4 4 4 4 3 3 3 3 3 4 2 1 0 1 2 2 2 1 2 2 4 3 2 1 2 3 2 2 2 3 3 2 3 4 7 8 8 8 5 4
9 11 10 10 8 8 8 11 12 12 14 13 12 11 10 10 9 8 9 9 8 9 10 10 10 7 8 8 9 10 9 11 10 9 8 9 8 8 6 6 5 5 5 5 4 4 4 4 5 3 2 3 3 3 2 1 2 1 2 3 3 3 1 2 2 2 2 2 3 2 2 3 2 2 3 3 2 3 3 3 3 3 3 5 3
9 9 11 10 10 9 8 8 9 9 10 12 11 8 8 9 9 7 8 8 7 7 9 11 10 9 8 8 8 8 8 10 10 10 10 9 8 7 7 6 6 5 5 7 7 7 7 6 6 5 4 3 2 2 2 3 1 1 2 2 1 3 3 3 4 4 3 4 4 3 3 2 2 3 2 3 3 3 3 2 2 2 2 2 4
9 10 11 11 12 11 10 12 10 9 8 11 11 10 12 10 8 10 10 8 8 8 9 9 11 11 9 8 8 8 7 8 8 9 10 9 7 6 7 6 6 6 6 7 5 5 5 5 4 4 5 4 4 3 3 3 3 1 1 1 2 1 3 4 4 3 4 3 2 3 3 3 3 3 3 2 3 3 3 2 2 2 2 1 1
12 12 13 13 12 12 12 11 8 9 11 11 11 13 12 11 9 9 7 8 9 10 10 11 12 10 10 10 9 8 8 8 8 9 8 9 9 9 10 7 8 8 7 5 6 6 6 5 4 4 4 6 5 7 5 5 2 5 4 2 2 1 1 2 4 5 4 3 3 4 4 4 4 3 3 3 3 3 3 3 2 2 2 2 1
13 13 13 11 12 11 11 11 9 10 11 12 11 11 12 12 12 10 11 10 11 9 9 9 9 10 11 10 9 9 9 9 10 9 9 9 8 8 9 7 8 6 8 9 7 7 6 7 7 6 5 4 4 4 8 8 5 2 1 1 3 2 2 2 3 3 4 4 4 4 4 4 6 5 4 4 3 3 3 3 3 3 3 3 2
11 10 11 13 10 12 12 12 12 11 10 12 14 12 12 11 11 9 9 9 9 10 10 9 10 11 11 9 9 9 10 10 10 10 9 9 9 9 7 8 10 8 7 8 10 10 8 8 8 8 6 7 6 7 8 9 4 6 2 6 1 1 6 4 4 2 3 4 5 5 4 4 5 5 4 5 5 4 4 4 4 4 4 4 3
12 12 12 13 10 15 15 14 12 13 12 12 12 10 9 8 8 5 4 6 3 5 8 10 11 10 9 10 10 11 12 10 9 10 9 10 9 9 9 8 8 10 9 9 8 8 8 7 8 9 10 9 8 6 6 8 8 8 5 4 1 2 6 2 1 3 3 4 5 5 5 6 5 5 6 5 5 5 5 6 5 5 5 4 4
13 14 14 14 13 12 12 13 11 12 12 14 14 10 10 9 10 11 10 10 11 10 13 14 12 12 12 9 11 12 11 9 9 10 10 9 10 10 9 8 8 9 11 10 6 6 9 11 10 9 9 10 7 6 6 7 9 8 6 7 4 6 3 3 2 4 1 2 0 4 5 7 6 7 6 5 7 6 6 6 6 5 5 5 5
15 12 12 14 14 13 14 14 12 12 14 13 14 12 10 9 14 14 12 12 13 11 9 8 9 8 7 10 9 10 9 11 10 10 10 10 9 9 10 10 9 8 8 9 11 11 10 10 7 10 9 7 7 9 10 8 5 7 8 7 4 3 2 5 6 2 3 2 4 4 5 4 5 7 7 7 7 6 6 6 6 6 6 5 5
14 9 11 12 14 16 15 14 13 14 13 13 14 15 12 12 13 14 13 12 13 13 13 12 10 9 10 9 8 9 11 10 10 10 10 10 10 10 10 9 9 9 8 11 10 9 8 8 10 10 7 7 9 10 10 8 9 7 9 9 7 4 4 7 5 7 7 8 4 1 2 3 3 5 6 7 8 9 8 7 6 7 6 6 5
10 11 13 13 13 13 13 12 13 13 13 15 15 16 16 14 14 12 13 13 14 12 8 8 10 9 11 10 9 9 9 10 10 10 10 12 11 12 12 9 10 9 9 8 8 8 11 11 10 11 12 11 9 10 8 8 11 8 7 9 8 8 5 3 1 2 7 7 8 6 5 1 2 6 7 7 6 6 7 8 8 7 7 6 6
10 10 11 10 11 10 12 14 15 11 12 14 15 17 18 15 12 14 17 13 11 10 9 10 10 9 12 12 10 8 8 9 10 11 11 12 12 12 12 13 11 10 10 9 9 11 10 11 12 11 11 11 9 10 11 9 8 9 9 7 9 7 5 3 2 3 4 4 7 5 6 9 7 7 6 8 9 7 7 6 6 6 6 6 6
8 9 11 11 10 11 12 14 16 11 12 14 15 16 15 14 15 18 19 18 15 12 9 9 8 8 10 10 10 9 9 9 9 10 12 12 12 12 11 10 10 11 11 12 12 11 11 12 12 12 13 13 11 12 11 11 10 10 11 9 9 10 10 10 9 8 9 6 4 8 8 8 11 8 7 8 6 6 6 5 6 7 6 6 6
Wind_Direction
168 171 179 192 167 148 133 122 119 112 105 103 97 89 95 101 108 104 77 110 120 126 123 106 104 99 98 96 93 95 96 90 85 86 86 87 85 84 93 93 84 87 90 91 86 82 78 76 75 75 78 80 78 74 71 71 71 73 74 70 66 62 58 54 49 45 43 43 38 30 49 70 64 68 63 61 66 67 76 68 60 70 62 60 53
163 171 170 173 166 151 130 125 123 116 109 105 102 100 96 102 109 120 131 126 135 122 108 106 104 103 101 94 91 91 89 91 90 90 89 87 86 90 87 84 86 88 89 85 84 81 79 78 79 79 80 80 77 74 72 72 72 74 74 70 69 61 57 54 50 45 42 40 35 30 22 33 68 65 65 67 66 64 72 70 67 53 61 64 53
143 161 165 168 164 151 134 129 126 121 114 109 107 102 100 107 113 116 116 113 131 107 110 111 108 108 102 98 98 97 97 97 96 92 88 89 91 85 83 84 88 94 92 91 86 83 81 81 80 79 80 80 79 79 74 71 71 72 74 71 68 61 56 52 47 45 41 37 32 25 16 20 16 67 65 69 64 61 55 54 61 59 50 62 66
142 153 158 176 154 160 140 135 126 121 117 115 107 104 104 106 113 119 121 115 110 106 105 105 102 105 101 102 103 100 97 93 95 100 99 94 90 90 89 93 98 97 95 91 89 86 82 81 81 82 82 82 81 81 77 74 72 71 72 70 65 61 57 51 44 41 40 38 31 22 24 15 10 52 70 71 69 61 57 56 47 48 46 37 33
146 149 159 156 157 143 129 129 126 124 125 119 112 108 112 112 117 126 129 124 116 108 100 94 100 103 105 107 105 104 103 105 106 101 95 96 100 98 95 93 85 88 91 87 84 84 82 82 82 82 81 82 84 85 83 79 74 71 70 67 61 59 56 51 44 38 35 34 29 23 22 23 20 350 73 78 66 49 58 62 54 47 35 28 35
149 153 150 148 142 132 140 138 133 132 132 127 117 115 116 113 120 127 130 102 94 95 97 100 102 103 111 108 107 107 109 107 103 104 105 97 93 91 94 88 94 95 94 90 87 85 85 85 83 81 81 82 83 82 83 82 78 73 68 64 60 57 54 48 44 38 30 31 25 25 27 25 22 6 64 74 79 53 52 52 47 43 34 29 24
153 151 148 150 142 146 157 143 138 136 134 126 123 118 111 114 118 125 132 120 112 105 102 101 101 110 108 106 108 113 117 116 115 109 98 99 101 100 98 97 95 96 95 94 93 87 84 82 82 81 81 82 83 84 83 82 79 76 73 71 67 63 57 51 45 42 32 16 15 21 26 27 31 29 47 67 67 71 58 49 46 37 33 31 31
151 152 149 150 160 158 159 143 137 136 129 123 127 127 124 122 125 122 124 118 113 109 104 102 107 113 114 116 116 122 124 126 117 108 105 103 97 91 88 91 92 89 86 87 84 80 79 81 82 82 82 82 83 82 81 81 82 81 79 76 72 66 59 52 46 39 35 35 10 6 15 27 31 31 49 72 71 69 66 50 39 36 34 38 32
154 154 158 157 164 171 162 146 144 142 133 128 128 129 125 121 121 115 118 119 118 115 114 116 116 115 119 121 127 124 127 123 118 113 107 103 102 102 98 97 96 95 92 89 89 90 85 81 81 82 84 83 82 81 83 84 84 85 82 79 72 65 60 55 45 37 28 18 8 10 7 19 31 39 44 72 73 70 66 58 45 38 48 44 40
158 158 164 165 170 175 165 156 149 148 138 136 132 132 127 124 128 127 126 127 126 121 117 118 120 123 127 121 109 121 128 127 124 116 110 107 103 99 99 98 99 103 100 93 88 84 83 83 83 82 82 82 81 83 84 86 87 85 83 79 74 68 64 58 50 42 28 12 10 6 14 357 21 40 56 68 75 72 79 69 51 37 47 45 48
163 163 165 167 176 175 168 159 159 150 144 142 140 135 134 133 132 132 129 133 129 123 126 132 130 124 116 120 117 121 127 122 121 121 117 111 109 108 100 99 95 92 94 95 91 89 88 86 84 85 85 84 83 84 86 87 85 82 77 74 70 65 61 55 47 39 30 18 7 2 2 360 6 24 63 78 75 71 65 50 46 48 48 49 55
168 167 167 169 173 173 167 158 159 149 149 148 143 140 143 144 140 137 143 138 132 135 137 130 124 120 119 117 120 108 116 126 122 123 122 118 112 106 104 102 103 95 87 88 91 91 88 88 88 85 84 83 82 81 82 84 83 80 75 71 65 62 55 49 42 34 24 15 13 358 3 1 3 55 59 63 63 62 60 56 52 52 53 56 62
168 172 171 171 171 177 162 165 163 158 156 150 148 145 149 153 149 144 148 142 143 140 121 119 117 118 124 120 118 115 111 121 126 121 119 119 116 109 104 103 99 94 89 82 86 92 91 88 87 86 84 84 81 79 79 80 80 80 76 71 66 60 54 43 34 32 22 13 14 1 357 359 3 37 56 61 60 59 60 57 56 56 60 69 71
169 175 171 176 173 172 165 166 171 170 155 153 154 151 153 153 158 151 156 146 149 126 132 129 128 128 127 121 125 125 121 124 127 127 124 120 113 110 105 105 102 94 92 92 90 93 93 93 91 88 85 82 82 81 77 75 76 79 81 76 67 58 43 41 27 26 30 12 10 4 359 353 19 26 59 65 65 67 63 59 61 68 73 77 75
175 176 177 174 176 176 170 172 171 169 150 156 155 159 160 157 160 157 158 146 137 134 141 140 137 134 128 129 131 130 128 124 122 124 124 118 115 111 110 106 99 100 99 96 93 91 94 95 90 85 85 87 86 83 80 77 72 77 84 81 72 60 44 41 28 24 28 14 10 358 4 348 20 20 62 63 68 71 67 64 69 77 77 76 74
180 176 178 182 180 178 175 177 164 166 160 155 158 160 163 169 173 173 156 150 141 148 148 145 141 137 137 133 134 129 129 125 123 120 119 117 115 111 109 106 102 101 98 97 91 92 92 89 85 85 86 88 88 82 76 74 73 79 92 90 80 69 54 31 41 29 22 17 6 3 353 335 25 63 67 63 69 75 72 70 72 81 79 74 73
176 179 182 188 187 193 184 173 162 161 165 158 158 159 165 169 173 135 132 135 142 150 150 150 156 136 98 80 86 101 111 127 125 118 119 119 114 112 112 108 104 102 103 100 92 89 89 88 87 87 87 85 84 82 77 74 74 81 92 95 87 71 52 25 43 29 15 13 4 356 356 358 9 61 65 70 75 75 72 74 76 80 81 76 73
177 184 190 193 194 193 195 186 159 152 158 161 159 161 152 137 128 127 130 137 143 145 148 126 94 90 84 79 72 69 67 62 79 85 88 88 98 109 113 114 114 108 101 99 97 93 90 88 85 84 78 68 64 66 68 68 73 78 86 97 90 65 49 26 43 23 16 1 9 0 4 15 325 72 69 75 82 79 72 70 78 82 80 77 74
182 192 194 196 192 194 193 190 172 145 152 156 150 155 148 138 137 141 145 145 145 132 122 115 107 97 91 88 83 78 74 65 59 53 61 74 81 84 96 101 105 106 105 102 102 99 91 86 81 79 69 58 51 51 59 68 72 84 92 97 84 70 46 30 40 22 9 14 7 3 7 353 57 76 79 76 76 74 75 83 83 79 78 79 77
191 195 194 202 189 179 183 187 171 159 157 151 156 151 151 145 147 149 152 149 131 121 115 108 108 107 106 103 100 98 88 82 74 71 61 64 65 86 95 105 110 109 99 100 101 97 90 80 72 70 66 55 50 48 45 59 74 83 97 99 82 65 44 30 24 32 9 11 357 360 345 12 74 77 71 79 82 80 76 81 83 80 77 80 81
194 199 195 203 194 177 177 177 183 170 159 158 154 158 158 149 151 152 151 142 127 122 117 111 111 111 117 115 115 115 122 120 104 99 80 75 65 64 79 86 84 76 73 93 86 85 79 76 68 69 68 60 53 57 43 43 64 85 97 102 99 73 49 11 5 36 32 355 349 355 341 1 71 86 84 77 81 83 85 83 85 78 79 81 80
191 194 191 206 187 186 177 178 175 171 166 166 166 167 161 157 148 151 145 135 129 128 134 135 135 135 127 132 135 137 138 133 127 119 108 101 72 58 70 87 86 75 60 43 53 47 62 70 58 61 66 64 51 65 49 49 51 67 89 108 102 88 56 26 4 24 28 6 342 343 339 4 57 79 86 82 91 92 90 85 81 80 81 81 78
192 191 198 200 206 177 185 182 182 173 173 169 172 175 172 165 156 148 147 146 148 148 150 149 153 152 154 150 148 153 153 151 147 137 127 89 84 64 71 82 90 78 69 55 44 37 39 45 40 42 68 68 64 57 61 38 66 75 86 94 107 105 93 55 37 27 22 2 329 333 334 36 44 84 90 88 93 94 89 83 82 83 86 83 81
192 193 200 204 201 184 180 188 183 178 173 172 171 176 178 177 162 152 158 155 159 163 164 162 161 162 160 162 159 159 162 153 148 138 128 142 117 76 52 57 71 69 50 81 63 54 39 41 32 24 55 56 63 50 87 116 117 107 100 120 116 106 117 129 71 36 11 4 346 339 337 51 78 97 100 96 98 94 90 84 88 91 87 85 83
195 186 200 205 202 190 184 187 180 176 177 175 171 180 182 178 177 172 169 169 167 170 171 172 176 169 168 170 169 162 164 160 159 158 161 155 167 171 165 173 152 171 37 109 61 51 41 34 8 27 49 47 46 48 324 156 151 143 118 122 131 129 113 329 109 69 28 3 358 346 340 2 100 108 104 101 96 103 93 88 89 91 89 87 84
196 197 205 206 204 195 185 187 183 179 181 178 184 182 179 186 184 185 179 183 180 180 182 184 197 175 179 175 166 168 175 178 180 176 183 193 203 205 200 191 183 203 170 133 97 57 69 54 8 353 50 19 35 309 236 281 120 146 131 134 149 145 141 179 127 87 39 4 2 347 343 355 15 72 98 120 112 111 103 96 94 90 87 85 83
195 209 208 207 206 205 192 190 191 185 191 184 186 185 193 192 190 187 185 193 195 191 195 197 204 190 186 177 171 178 190 197 198 194 193 197 207 208 203 199 198 199 182 142 98 77 68 92 48 310 295 349 328 284 294 273 205 181 140 143 152 176 170 143 248 93 46 14 355 348 343 353 9 6 136 121 115 111 109 110 104 96 95 94 90
205 209 207 207 204 204 193 194 190 188 192 189 190 192 196 195 196 188 195 190 188 199 201 204 202 199 194 190 194 186 184 192 201 201 201 200 212 209 208 204 197 186 163 157 140 168 176 173 175 204 294 326 300 294 290 271 3 221 180 167 164 173 200 139 103 92 72 34 2 351 348 357 5 357 345 133 126 121 117 112 108 104 98 94 93
213 210 208 207 207 205 191 197 197 195 193 189 195 193 195 200 196 196 200 189 198 202 202 200 203 201 201 198 194 190 197 199 199 205 203 208 211 207 207 208 202 192 171 183 189 175 178 186 181 242 285 290 294 298 302 291 211 195 203 162 172 165 176 130 139 101 90 53 10 359 353 1 7 360 356 347 129 124 116 113 108 98 91 90 90
212 208 207 209 206 205 191 191 198 197 195 191 197 194 196 200 201 198 201 194 203 203 200 202 203 199 203 206 206 200 191 192 201 200 203 211 207 205 209 208 207 198 192 186 176 179 184 181 206 213 254 254 271 268 300 284 6 194 166 193 168 169 154 155 149 123 112 53 27 359 1 8 5 6 356 344 136 120 118 130 118 113 116 107 100
205 213 212 208 202 203 206 195 200 199 196 196 195 199 197 206 202 197 198 204 204 205 206 205 201 205 206 204 205 205 197 198 199 197 208 210 204 201 211 207 209 206 203 190 186 190 175 204 204 212 218 236 257 293 270 280 269 203 144 184 185 154 160 165 169 157 124 95 40 15 354 13 15 359 354 353 127 133 144 143 126 128 125 116 104
206 212 209 203 202 206 211 205 196 198 197 192 194 199 201 205 203 200 205 205 200 209 210 204 205 207 209 208 207 205 200 203 205 204 210 212 208 204 204 203 208 197 202 189 182 188 187 192 200 223 230 244 263 237 194 255 254 211 159 156 196 168 158 152 149 181 148 138 95 20 1 17 22 7 7 352 155 138 142 131 137 120 103 111 109
214 209 200 197 205 204 208 210 203 200 203 192 192 195 198 200 203 209 208 201 205 208 212 209 206 208 207 208 208 207 203 206 207 207 207 216 212 198 195 209 208 198 193 186 174 175 188 196 220 205 197 191 223 211 181 179 262 209 192 151 169 160 145 154 153 214 110 131 124 78 30 25 30 13 16 8 119 159 149 114 108 98 93 99 109
204 189 181 205 201 202 203 206 202 203 199 198 193 193 193 196 201 207 205 206 209 208 211 210 210 212 209 208 207 207 205 210 206 208 207 216 217 212 205 211 203 199 182 193 194 188 206 207 213 193 207 201 215 207 217 231 200 176 200 152 172 171 161 162 166 175 296 50 111 102 66 51 55 35 20 24 47 84 102 107 108 106 107 108 109
203 193 200 200 197 202 197 206 201 209 200 202 203 196 192 191 195 199 202 204 209 210 211 212 216 216 210 213 210 206 208 210 210 210 210 215 219 208 210 217 196 184 191 194 201 198 203 215 196 211 201 212 213 215 219 237 238 226 182 178 180 161 160 148 130 117 168 169 163 125 112 92 75 70 42 52 47 60 109 121 116 113 110 114 116
207 205 207 193 197 198 197 203 201 206 205 200 202 205 202 195 194 198 201 200 203 205 205 209 212 212 210 213 207 208 206 208 209 207 213 213 218 213 216 204 195 181 199 193 195 207 203 216 209 205 216 223 212 232 186 234 230 242 177 192 175 172 173 160 163 162 156 157 181 153 137 109 99 86 85 66 74 72 73 87 103 102 98 96 108
206 203 202 195 202 198 196 204 205 205 211 206 204 205 201 201 198 197 200 199 204 205 206 207 212 212 210 211 208 207 205 207 208 206 211 213 216 217 216 205 192 196 195 196 201 209 200 205 211 201 212 228 199 234 225 218 236 243 179 181 183 172 207 168 168 168 165 183 182 163 137 123 97 111 100 86 86 90 76 77 80 71 61 76 93
212 211 206 201 203 194 196 201 205 205 205 209 201 203 204 204 206 204 204 207 204 206 207 206 211 212 212 214 207 208 206 209 206 205 211 211 208 208 208 203 193 199 204 195 212 199 209 202 217 197 193 198 211 211 229 191 292 296 159 165 165 197 174 197 160 157 184 175 148 167 146 124 124 112 106 100 100 86 93 75 69 62 51 45 88
205 206 205 209 206 204 201 206 206 203 206 207 203 205 204 208 208 207 209 211 211 213 210 211 214 205 211 205 203 208 203 207 205 202 208 213 215 217 211 203 197 201 209 206 210 200 201 196 214 196 191 213 223 201 216 141 195 191 177 166 162 163 149 142 148 165 168 167 185 171 143 147 133 118 115 126 115 110 95 95 89 86 72 39 90
204 200 205 203 206 205 204 208 207 200 200 207 203 199 201 203 202 198 211 209 208 209 214 217 215 216 213 205 201 203 196 202 202 201 206 207 211 209 206 200 202 198 206 222 223 216 209 209 217 203 198 216 223 213 156 146 119 151 154 154 171 167 168 169 169 168 174 182 177 166 173 141 142 128 134 133 129 121 110 109 106 110 109 66 43
203 198 201 203 204 202 194 208 199 195 190 199 202 196 200 201 202 204 209 198 204 208 216 216 219 221 216 207 200 202 190 192 197 195 205 209 209 204 205 204 196 200 209 218 205 203 203 201 197 189 202 203 217 200 198 168 163 190 119 179 189 179 166 174 171 171 180 172 171 176 158 155 152 157 151 140 134 129 131 129 131 132 120 128 78
209 201 201 203 203 202 205 208 192 193 199 197 196 201 200 196 191 200 193 197 207 212 219 221 222 220 218 215 207 196 193 195 196 197 200 203 210 214 216 207 201 212 214 211 203 198 190 195 181 201 212 211 212 200 194 147 196 224 219 221 213 162 155 187 179 196 181 166 175 182 169 172 169 163 149 146 140 143 146 148 144 138 136 145 166
209 202 206 202 204 206 212 208 199 193 201 202 200 204 203 202 199 202 202 210 216 214 215 214 214 217 216 214 212 203 194 199 197 198 200 202 205 207 213 205 204 193 212 218 206 207 193 195 190 195 196 215 221 191 184 199 209 152 109 356 256 247 200 215 224 224 194 173 163 187 183 174 176 169 162 159 156 160 165 162 154 154 162 171 181
214 206 203 202 203 208 209 206 205 200 201 203 205 208 204 201 205 202 202 201 207 213 218 220 221 220 222 212 212 206 203 205 201 197 201 200 199 206 201 203 210 197 198 208 213 216 204 206 200 206 179 206 212 218 201 202 176 147 226 218 218 179 290 241 212 187 185 185 187 182 177 199 179 160 167 176 172 171 173 172 170 171 174 179 182
213 209 202 202 203 207 206 204 203 204 206 203 200 196 191 193 198 188 154 211 244 195 209 224 219 218 219 213 210 205 208 206 201 201 198 203 200 202 202 201 199 205 205 211 207 206 199 194 191 197 199 208 210 211 204 204 212 214 186 107 97 245 229 253 161 212 169 188 215 193 187 179 187 186 185 180 173 180 174 181 182 174 177 177 186
217 215 207 208 207 209 205 204 205 207 208 205 198 187 190 181 182 194 201 207 215 207 209 210 206 209 210 206 211 210 207 202 203 201 202 203 203 201 200 200 203 203 208 213 203 201 204 205 198 197 202 211 211 194 209 211 217 225 246 237 230 256 177 179 154 259 152 230 172 211 198 195 182 184 193 177 182 186 189 185 178 177 178 182 185
224 214 210 214 212 211 205 202 203 205 207 203 192 192 193 191 195 199 199 200 211 218 216 212 210 210 205 208 209 207 202 202 204 203 202 201 204 199 201 204 203 201 196 206 211 210 208 208 186 203 208 191 199 218 214 207 196 240 235 245 265 264 198 154 223 122 283 177 222 200 218 219 210 191 188 191 186 185 195 187 179 180 183 185 185
224 209 216 217 214 213 206 203 205 206 202 198 191 195 196 196 200 207 210 212 211 219 208 214 214 209 208 207 203 209 209 205 205 204 204 201 203 205 205 203 204 205 194 208 208 207 207 213 206 206 199 194 192 212 219 199 189 216 209 224 230 223 220 228 210 211 248 258 220 185 241 203 235 240 214 194 194 197 184 190 185 185 182 187 188
222 211 215 215 216 216 215 213 212 208 205 196 196 196 201 199 201 203 211 218 219 223 203 202 207 199 212 211 207 207 207 207 208 205 203 208 206 211 210 205 208 204 203 206 208 202 204 206 203 207 209 208 205 214 216 213 204 213 183 217 217 220 217 239 269 166 228 229 243 189 196 78 226 230 219 217 213 200 190 189 193 182 180 183 187
223 221 226 221 219 214 213 212 216 209 208 204 201 201 202 201 201 207 211 214 212 214 198 203 202 191 211 210 210 204 204 206 209 211 210 209 209 207 211 212 212 209 208 209 207 211 209 210 206 204 206 209 210 212 215 218 208 216 203 188 197 211 216 212 186 203 277 245 245 211 185 187 211 222 183 210 210 204 203 200 192 198 197 189 184
224 217 224 220 218 213 214 213 217 207 203 205 204 208 205 204 208 209 210 215 209 204 200 209 195 195 209 208 204 207 204 209 204 207 209 209 210 208 209 211 211 212 212 215 214 211 211 212 214 212 212 210 210 210 218 224 218 218 214 207 202 198 193 201 202 202 209 215 231 247 231 207 220 235 210 202 193 197 199 191 202 205 207 201 195